Orbital Elements at Epoch 2459200.5 (2020-Dec-17.0) TDB
Reference: JPL 9 (heliocentric ecliptic J2000)
Element | Value | Uncertainty (1-sigma) | Units |
e | .1480543985755667 | 5.494e-08 | |
a | 2.369821231878062 | 1.622e-08 | au |
q | 2.018958774660747 | 1.2921e-07 | au |
i | .6628178857931267 | 6.1721e-06 | deg |
node | 257.6131578843941 | 0.0012575 | deg |
peri | 354.6407296208461 | 0.0012587 | deg |
M | 201.4022756272 | 5.5574e-05 | deg |
tp | 2459787.538056863578 (2022-Jul-27.03805686) | 0.00020644 | TDB |
period | 1332.514078033849 3.65 | 1.3681e-05 3.746e-08 | d yr |
n | .2701660011961653 | 2.7737e-09 | deg/d |
Q | 2.720683689095377 | 1.8622e-08 | au |
|
| | Orbit Determination Parameters
Additional Information
|